Location: Eschertshofen
(49.3064°N, 11.5756°E)
Time: 15:33:32
(UTC+00:00)

Meteor 1-21 - Pass Details

Date: 18 September 2020
Orbit: 845 x 887 km, 81.2° (Epoch: 27 October)

Event Time Altitude Azimuth Distance (km) Brightness Sun altitude
Rises 18:12:33 0° 347° (NNW) 3,433 7.8 -9.4°
Reaches altitude 10° 18:15:00 10° 346° (NNW) 2,489 7.0 -9.8°
Maximum altitude 18:20:38 80° 261° (W) 865 4.4 -10.6°
Drops below altitude 10° 18:26:13 10° 175° (S) 2,462 6.4 -11.5°
Sets 18:28:37 0° 174° (S) 3,393 7.1 -11.9°
